Simultaneous Nadir Overpasses (SNOs) Predictions

Prediction of SNOs between GOES-17 and TERRA Satellite Orbit:

Table of predicted SNOs for the next 14.0 days since TLE Epoch: 12/16/2022
Index Date Time (GOES-17) GOES-17 Lat,Lon TERRA Lat,Lon Distance(km) Time Diff (sec)
1 12/17/2022 07:40:23 0.00,-137.33 -0.86,-141.54 477.57 80
2 12/19/2022 07:24:39 0.01,-137.33 -0.06,-137.73 45.94 80
3 12/21/2022 07:08:55 0.01,-137.31 0.75,-133.93 384.99 80
4 12/21/2022 19:26:36 -0.01,-137.31 0.31,-138.87 176.94 80
5 12/23/2022 19:13:31 -0.00,-137.29 -0.46,-135.06 252.91 80
6 12/24/2022 07:31:20 0.00,-137.27 -0.56,-140.04 313.84 80
7 12/26/2022 07:18:15 -0.02,-137.24 0.22,-136.23 115.63 80
8 12/26/2022 19:35:56 0.02,-137.24 0.82,-141.17 446.73 80
9 12/28/2022 19:20:10 0.03,-137.20 0.08,-137.35 17.54 80
10 12/30/2022 19:07:05 0.03,-137.16 -0.74,-133.55 411.58 80
